{"data":{"norad_id":56319,"epoch":"2026-05-24T22:49:44.749632Z","epoch_age_seconds":69412,"freshness":"FRESH","line1":"1 56319U 23058C   26144.95121238 -.00006837  00000+0 -46971-3 0  9995","line2":"2 56319  97.4510 144.9831 0002123  72.1228 288.0230 15.05690984169255","mean_motion":15.05690984,"eccentricity":0.0002123,"inclination_deg":97.451,"raan_deg":144.9831,"arg_perigee_deg":72.1228,"mean_anomaly_deg":288.023,"bstar":-0.00046971,"rev_number":16925,"period_min":95.637153659147,"perigee_km":547.91472951934,"apogee_km":550.85615554844,"semimajor_km":6927.5224425339,"source":"CELESTRAK","updated_at":"2026-05-25T13:38:17.999570Z"}}